Location: Coed Ely
(51.5661°N, 3.4150°W)
Time: 19:54:38
(UTC+00:00)

Cosmos 2098 Rocket - Pass Details

Date: 28 January 2021
Orbit: 366 x 1182 km, 82.9° (Epoch: 27 February)

Event Time Altitude Azimuth Distance (km) Brightness Sun altitude
Rises 18:49:14 0° 187° (S) 4,025 7.4 -17.5°
Reaches altitude 10° 18:51:54 10° 187° (S) 3,094 6.8 -17.9°
Maximum altitude 18:59:21 90° 258° (WSW) 1,174 4.3 -19.0°
Drops below altitude 10° 19:06:26 10° 10° (N) 2,938 6.4 -20.1°
Sets 19:08:55 0° 11° (N) 3,814 7.0 -20.5°
